sat.trackr.live / text

‹ back to catalog

STARLINK-36147

NORAD 66987 · 2025-288AE

PAYLOAD ACTIVE UNKNOWN

§ Identity

Operator
Country
US
Launch date
2025-12-08
Launch site
AFETR
Launch vehicle
Mass (kg)
RCS (m²)

Purposes: comms

External: N2YO · Heavens-Above · Gunter

§ Orbital elements

Epoch: 2026-09-20T07:34:57.472608Z

Period
94.27 min
Inclination
43.0001°
Eccentricity
0.0000304
Mean motion
15.27588419 rev/d
Perigee alt
482.8 km
Apogee alt
483.2 km
Semi-major
6,861.2 km
B*
5.4743e-4
RAAN
4.2444°
Arg perigee
291.2216°
Mean anomaly
68.8603°
Rev number
4,505

§ Raw data

STARLINK-361471 66987U 25288AE  26263.31594297  .00014836  00000+0  54743-3 0  99972 66987  43.0001   4.2444 0000304 291.2216  68.8603 15.27588419 45059

JSON: /api/v1/satellites/66987 · /tle

For live sub-satellite position, see the globe view (requires WebGL).

§ Visibility from observer

Set your observer location to see the next 7 days of passes ≥ 10°. The values pass through the URL so the page stays shareable.

No JS? Fill the form by hand. The geolocation button needs JavaScript.